S59MA-6 Weather Reports


time (UTC)temp
C
wind
direction
speed
KPH
gust
KPH
rain 1hr
cm
rain 24hr
cm
rain mn
cm
humidity
%
barometer
mb
20260504202043 14 248 0.0 0.0 0.00 25.37 0.00 55 1005.0
20260504201543 15 248 0.0 0.0 0.00 25.37 0.00 54 1005.0
20260504200544 15 248 0.0 0.0 0.00 25.37 0.00 53 1005.0
20260504200043 15 248 0.0 0.0 0.00 25.37 0.00 52 1004.9
20260504195545 15 248 0.0 0.0 0.00 25.37 0.00 52 1005.1
20260504195543 15 248 0.0 0.0 0.00 25.37 0.00 52 1005.1
20260504195046 15 248 0.0 0.0 0.00 25.37 0.00 52 1004.8
20260504194544 15 248 0.0 0.0 0.00 25.37 0.00 51 1004.9
20260504193543 16 248 0.0 0.0 0.00 25.37 0.00 51 1004.7
20260504193043 16 248 0.0 0.0 0.00 25.37 0.00 50 1004.8
20260504192543 16 248 0.0 0.0 13.21 25.37 0.00 50 1004.7
20260504192045 16 248 0.0 0.0 13.21 25.37 0.00 49 1004.6
20260504192043 16 248 0.0 0.0 13.21 25.37 0.00 49 1004.6
20260504191543 16 248 0.0 0.0 25.37 25.37 0.00 48 1004.6
20260504191044 16 248 0.0 0.0 25.37 25.37 0.00 48 1004.6
20260504190544 17 248 0.0 0.0 25.37 25.37 0.00 48 1004.3
20260504190043 17 248 0.0 0.0 25.37 25.37 0.00 48 1004.5
20260504185544 17 248 0.0 0.0 25.37 0.91 0.00 48 1004.4
20260504185047 17 248 0.0 0.0 25.37 0.91 0.00 47 1004.4
20260504185044 17 248 0.0 0.0 25.37 0.91 0.00 47 1004.4
20260504184548 17 248 0.0 0.0 25.37 0.91 0.00 47 1004.2
20260504184043 18 248 0.0 0.0 25.37 0.91 0.00 46 1004.3
20260504183543 18 248 0.0 0.0 25.37 0.91 0.00 45 1004.0
20260504183043 18 338 0.0 0.0 25.37 0.91 0.00 45 1004.1
20260504182543 18 338 0.0 0.0 25.37 0.91 0.00 44 1003.3
20260504182043 18 338 0.0 0.0 25.37 25.37 0.00 44 1004.1
20260504181545 19 338 0.0 0.0 25.37 25.37 0.00 44 1004.0
20260504180544 19 248 0.0 0.0 25.37 25.37 0.00 44 1004.0
20260504180044 19 248 0.0 0.0 25.37 25.37 0.00 44 1003.8
20260504175544 19 248 0.0 0.0 25.37 0.91 0.00 44 1003.7
20260504174043 20 359 0.0 0.0 25.37 0.91 0.00 43 1003.8
20260504173543 20 359 0.0 0.0 25.37 0.91 0.00 42 1003.9
20260504172544 21 359 0.0 0.0 25.37 0.91 0.00 42 1003.4
20260504172125 21 248 0.0 0.0 13.21 0.91 0.00 42 1002.7
20260504172043 21 248 0.0 0.0 13.21 0.91 0.00 42 1002.7
20260504171043 21 248 0.0 0.0 0.00 25.37 0.00 41 1003.9
20260504170544 21 248 0.0 0.0 0.00 25.37 0.00 41 1003.7
20260504151045 23 248 0.0 0.0 25.37 25.37 0.00 39 1004.3
20260504150545 23 248 0.0 0.0 25.37 25.37 0.00 39 1004.5
20260504130703 25 248 0.0 0.0 0.00 25.37 0.00 39 1004.7
20260504130544 25 248 0.0 0.0 0.00 25.37 0.00 39 1004.7
20260504110633 25 248 70.8 70.8 25.37 25.37 0.00 43 1004.7
20260504110546 25 248 70.8 70.8 25.37 25.37 0.00 43 1004.7
20260504100547 22 248 0.0 0.0 0.00 25.37 0.00 50 1005.6
20260504081546 19 248 0.0 0.0 0.00 0.81 0.00 60 1006.8
20260504080546 18 248 0.0 0.0 0.00 0.81 0.00 60 1006.7
20260504050546 11 270 0.0 0.0 0.00 25.37 0.00 80 1006.8
20260504045546 10 270 0.0 0.0 0.00 25.37 0.00 81 1006.6
20260504045046 9 248 0.0 0.0 0.00 25.37 0.00 81 1006.6
20260504044546 8 248 0.0 0.0 0.00 25.37 0.00 80 1006.6
20260504044046 7 248 0.0 0.0 0.00 25.37 0.00 80 1006.7
20260504043548 7 248 0.0 0.0 0.00 25.37 0.00 80 1006.5
20260504043046 7 248 0.0 0.0 0.00 25.37 0.00 80 1006.6
20260504042546 7 248 0.0 0.0 0.00 25.37 0.00 79 1006.6
20260504042046 7 248 0.0 0.0 0.00 25.37 0.00 79 1006.6
20260504041547 6 248 0.0 0.0 0.00 25.37 0.00 79 1006.5
20260504041046 6 248 0.0 0.0 0.00 25.37 0.00 79 1006.6
20260504040548 6 248 0.0 0.0 0.00 25.37 0.00 79 1006.4
20260504040047 6 248 0.0 0.0 0.00 25.37 0.00 79 1006.6
20260504035546 6 248 0.0 0.0 0.00 25.37 0.00 79 1006.5
20260504034547 6 248 0.0 0.0 0.00 25.37 0.00 78 1006.5
20260504034047 7 248 0.0 0.0 0.00 25.37 0.00 78 1006.4
20260504033558 7 248 0.0 0.0 0.00 25.37 0.00 78 1006.5
20260504033047 7 248 0.0 0.0 0.00 25.37 0.00 78 1006.4
20260504032546 7 248 0.0 0.0 0.00 25.37 0.00 78 1006.5
20260504032047 7 248 0.0 0.0 0.00 25.37 0.00 77 1006.5
20260504031546 7 248 0.0 0.0 0.00 25.37 0.00 77 1006.6
20260504031046 7 248 0.0 0.0 0.00 25.37 0.00 77 1006.5
20260504030546 7 248 0.0 0.0 0.00 25.37 0.00 77 1006.4
20260504030046 7 248 0.0 0.0 0.00 25.37 0.00 77 1006.5
20260504025546 7 248 0.0 0.0 0.00 25.37 0.00 77 1006.3
20260504025046 7 248 0.0 0.0 0.00 25.37 0.00 77 1006.4
20260504024546 7 248 0.0 0.0 0.00 25.37 0.00 76 1006.5
20260504024047 7 248 0.0 0.0 0.00 25.37 0.00 76 1006.6
20260504023546 7 248 0.0 0.0 0.00 25.37 0.00 76 1006.5
20260504023046 7 248 0.0 0.0 0.00 25.37 0.00 76 1006.5
20260504022546 7 248 0.0 0.0 0.00 25.37 0.00 76 1006.5
20260504022049 7 248 0.0 0.0 0.00 25.37 0.00 76 1006.5
20260504021546 7 248 0.0 0.0 0.00 25.37 0.00 76 1006.4
20260504021046 7 248 0.0 0.0 0.00 25.37 0.00 75 1006.6
20260504020546 7 248 0.0 0.0 0.00 25.37 0.00 75 1006.7
20260504020046 7 248 0.0 0.0 0.00 25.37 0.00 75 1006.5
20260504015046 8 248 0.0 0.0 0.00 25.37 0.00 74 1006.6
20260504014546 8 248 0.0 0.0 0.00 25.37 0.00 74 1006.6
20260504014046 8 248 0.0 0.0 0.00 25.37 0.00 74 1006.6
20260504013546 8 248 0.0 0.0 0.00 25.37 0.00 74 1006.5
20260504013046 8 248 0.0 0.0 0.00 25.37 0.00 74 1006.5
20260504012552 8 248 0.0 0.0 0.00 25.37 0.00 74 1006.5
20260504012046 8 248 0.0 0.0 0.00 25.37 0.00 74 1006.6
20260504011546 8 248 0.0 0.0 0.00 25.37 0.00 74 1006.5
20260504011046 8 359 0.0 0.0 0.00 25.37 0.00 74 1006.4
20260504010546 8 359 0.0 0.0 0.00 25.37 0.00 74 1006.6
20260504010046 8 248 0.0 0.0 0.00 25.37 0.00 73 1006.5
20260504005546 8 248 0.0 0.0 0.00 25.37 0.00 72 1006.5
20260504004046 8 248 0.0 0.0 0.00 25.37 0.00 72 1006.5
20260504003548 8 248 0.0 0.0 0.00 25.37 0.00 72 1006.5
20260504002548 8 248 0.0 0.0 0.00 25.37 0.00 71 1006.4
20260504001549 8 248 0.0 0.0 0.00 25.37 0.00 71 1006.4
20260504001047 8 248 0.0 0.0 0.00 25.37 0.00 71 1006.3
20260503235547 8 248 0.0 0.0 0.00 25.37 0.00 71 1006.4
20260503235051 8 248 0.0 0.0 0.00 25.37 0.00 71 1006.4
20260503234550 8 248 0.0 0.0 0.00 25.37 0.00 71 1006.5
20260503234047 8 248 0.0 0.0 0.00 25.37 0.00 69 1006.6
20260503233549 8 248 0.0 0.0 0.00 25.37 0.00 69 1006.6
20260503233048 9 248 0.0 0.0 0.00 25.37 0.00 69 1006.7
20260503232047 9 248 0.0 0.0 0.00 25.37 0.00 68 1006.5
20260503231547 9 248 0.0 0.0 0.00 25.37 0.00 68 1006.6
20260503231047 9 248 0.0 0.0 0.00 25.37 0.00 68 1006.8
20260503230548 9 248 0.0 0.0 0.00 25.37 0.00 68 1006.8
20260503230047 9 248 0.0 0.0 0.00 25.37 0.00 68 1006.7
20260503225547 9 248 0.0 0.0 0.00 25.37 0.00 68 1006.5
20260503225047 9 248 0.0 0.0 0.00 25.37 0.00 67 1006.7
20260503224547 9 248 0.0 0.0 0.00 25.37 0.00 66 1006.7
20260503223547 10 248 0.0 0.0 0.00 25.37 0.00 65 1006.6
20260503223049 10 248 0.0 0.0 0.00 25.37 0.00 65 1006.4
20260503222547 10 248 0.0 0.0 0.00 25.37 0.00 65 1006.5
20260503221047 10 248 0.0 0.0 0.00 25.37 0.00 62 1006.3
20260503220547 10 248 0.0 0.0 0.00 25.37 0.00 62 1006.2
20260503220047 10 248 0.0 0.0 0.00 25.37 0.00 62 1006.1
20260503215547 10 248 0.0 0.0 0.00 25.37 0.00 62 1006.2
20260503215047 10 248 0.0 0.0 0.00 25.37 0.00 62 1006.1
20260503214550 11 248 0.0 0.0 0.00 25.37 0.00 62 1006.0
20260503214547 11 248 0.0 0.0 0.00 25.37 0.00 62 1006.0
20260503214047 11 248 0.0 0.0 0.00 25.37 0.00 62 1006.1
20260503213547 11 248 0.0 0.0 0.00 25.37 0.00 62 1006.1
20260503213047 11 248 0.0 0.0 0.00 25.37 0.00 61 1005.9
20260503212547 11 248 0.0 0.0 0.00 25.37 0.00 61 1005.8
20260503212047 11 248 0.0 0.0 0.00 25.37 0.00 61 1005.8
20260503211047 11 248 0.0 0.0 0.00 25.37 0.00 61 1005.7
20260503210047 11 248 0.0 0.0 0.00 25.37 0.00 60 1005.8
20260503205547 11 248 0.0 0.0 13.21 25.37 0.00 59 1005.6
20260503205051 12 248 0.0 0.0 25.37 25.37 0.00 59 1005.6
20260503204619 12 248 0.0 0.0 25.37 25.37 0.00 59 1005.7
20260503204547 12 248 0.0 0.0 25.37 25.37 0.00 59 1005.7
20260503204051 12 248 0.0 0.0 25.37 25.37 0.00 59 1005.7
20260503203547 12 248 0.0 0.0 25.37 25.37 0.00 59 1005.8
20260503203050 12 248 0.0 0.0 25.37 25.37 0.00 59 1005.9